DELTA 1 DEB, 28443

Orbit data source: Space-Track

DELTA 1 DEB, 28443 is space debris in LEO originally from a launch on Thu, 08 Feb 1962 UTC launched from the Air Force Eastern Test Range (AFETR). Debris objects in space refer to the collection of defunct objects orbiting the Earth. Examples of debris include non-operational satellites, rocket bodies, and fragments generated from explosions, collisions, or faulty payload assembly.

Loading next visibility...
Identifier
28443, 1962-002E
Orbit
LEO
Country
Flag of USUS
Related business
Manufacturer
LM/EW
Mission
Spacecraft
Bus & Motor
Unknown
Mass
Unknown
Launch date (UTC)
1962-02-08 (64 years ago)
Launch vehicle
Unknown
Launch site
Air Force Eastern Test Range (AFETR)
Object type
Payload
Rocket body
Debris
Shape & HBR
Unknown shape, 0.1 m
Radar Cross Section
Medium (>0.1 m² and <1 m²)

Expand to show TLE details & history
Last TLE update: 1 day ago

TLE from 1 day ago
0 DELTA 1 DEB
1 28443U 62002E   26177.62778839  .00000264  00000-0  93103-4 0  9996
2 28443  48.2702  32.5817 0071591 292.8632 102.3857 14.58840350308721
Epoch: 2026-06-26T15:04Z
TLE epoch observation values (Epoch: 2026-06-26T15:04:00.916Z)
Latitude
26.13269°
Longitude
-82.37642°
Altitude
708.73 km
Speed
7.499 km/s
True Right ascension
03h 53m 31s
True Declination
25° 59' 46"
Sunlit
Object was in daylight at epoch
Visualization orbit readout
Latitude
Unknown
Longitude
Unknown
Altitude
Unknown
Speed
Unknown
Apparent Right ascension
Unknown
Apparent Declination
Unknown
Sunlit
N/A
Visualization observer readout
Local Sidereal Time
04:01:34
Azimuth
Unknown
Elevation
Unknown
Doppler factor
Unknown
Orbital elements
Apogee altitude
748.608 km
Perigee altitude
647.291 km
Semi-major axis
7,076.087 km
Eccentricity
0.00716
Inclination
48.2702°
RAAN
32.5817°
Arg. of periapsis
292.8632°
True anomaly
103.18542°
Mean anomaly
102.3857°
Eccentric anomaly
102.78572°
Mean motion
3.64631 °/min
Orbital period
98.73 mins
BSTAR
0.000093103
Loading maneuver chart data...
Computing Atmospheric mass density...
Loading historical data...
Loading historical data...
Loading historical data...
Loading historical data...
Loading historical data...
Loading historical data...
Loading historical data...
Other satellites on launch #2 in the year 1962 (1962-02-08 UTC)

Documentation

Showing up to 5 results
|